Hourly Data Report for September 29, 2017

All times are specified in Local Standard Time (LST). Add 1 hour to adjust for Daylight Saving Time where and when it is observed.

BATHURST A
NEW BRUNSWICK

47°37'47.000" N
65°44'20.000" W
58.80 m
8100505
71574
ZBF

Download Data

Hourly Data (September 2017)
Hourly Data Report for September 29, 2017
Temp Definition
°C
Dew Point Temp Definition
°C
Rel Hum Definition
%
Wind Dir Definition
10's deg

Wind Spd Definition
km/h
Visibility Definition
km
Stn Press Definition
kPa
Hmdx Definition


Wind Chill Definition


Weather Definition


TIME
00:00 Legend Double Dagger 8.3 4.0 74 29 15 24.1 99.82     LegendNANA
01:00 Legend Double Dagger 8.0 3.2 72 29 13 24.1 99.86     LegendNANA
02:00 Legend Double Dagger 8.1 2.9 70 30 18 24.1 99.88     Clear
03:00 Legend Double Dagger 7.5 2.6 71 30 12 24.1 99.91     LegendNANA
04:00 Legend Double Dagger 7.4 2.4 71 29 17 24.1 99.96     LegendNANA
05:00 Legend Double Dagger 6.7 2.3 74 30 18 24.1 100.01     Mainly Clear
06:00 Legend Double Dagger 6.2 2.0 75 29 12 24.1 100.09     LegendNANA
07:00 Legend Double Dagger 6.2 1.8 74 30 15 24.1 100.17     LegendNANA
08:00 Legend Double Dagger 7.9 2.2 67 30 12 24.1 100.27     Clear
09:00 Legend Double Dagger 8.6 2.2 64 31 13 24.1 100.34     LegendNANA
10:00 Legend Double Dagger 9.9 2.7 60 33 19 24.1 100.38     LegendNANA
11:00 Legend Double Dagger 9.9 1.8 57 36 17 24.1 100.38     Mostly Cloudy
12:00 Legend Double Dagger 10.4 2.3 57 34 16 24.1 100.46     LegendNANA
13:00 Legend Double Dagger 11.0 2.2 54 31 12 24.1 100.50     LegendNANA
14:00 Legend Double Dagger 10.2 3.9 65 35 9 16.1 100.57     Rain Showers
15:00 Legend Double Dagger 9.2 4.1 70 33 15 12.9 100.66     Rain Showers
16:00 Legend Double Dagger 9.1 4.1 71 33 9 19.3 100.70     LegendNANA
17:00 Legend Double Dagger 8.8 3.2 68 33 9 24.1 100.80     Cloudy
18:00 Legend Double Dagger 8.1 3.9 74 33 7 24.1 100.90     Rain
19:00 Legend Double Dagger 7.9 2.6 69 34 8 24.1 100.99     LegendNANA
20:00 Legend Double Dagger 7.0 2.1 71 33 5 24.1 101.07     Mostly Cloudy
21:00 Legend Double Dagger 5.4 2.3 80 30 4 19.3 101.11     LegendNANA
22:00 Legend Double Dagger 4.4 1.4 81 30 8 19.3 101.17     LegendNANA
23:00 Legend Double Dagger 4.4 1.3 80 30 10 24.1 101.21     Mainly Clear

Notes on Data Quality.

Legend

  • E = Estimated
  • M = Missing
  • NA = Not Available
  • ‡ = Partner data that is not subject to review by the National Climate Archives
Date modified: